Simultaneous Nadir Overpasses (SNOs) Predictions

Prediction of SNOs between GOES-15 and METOP-C Satellite Orbit:

Table of predicted SNOs for the next 14.0 days since TLE Epoch: 11/10/2019
Index Date Time (GOES-15) GOES-15 Lat,Lon METOP-C Lat,Lon Distance(km) Time Diff (sec)
1 11/11/2019 06:20:01 0.25,-128.52 -0.49,-131.94 389.85 80
2 11/12/2019 05:56:40 0.25,-128.52 0.58,-126.94 179.33 80
3 11/13/2019 18:15:32 -0.25,-128.51 0.43,-131.51 341.41 80
4 11/14/2019 17:57:33 -0.25,-128.51 -0.70,-126.52 227.68 80
5 11/16/2019 06:16:31 0.24,-128.51 -0.36,-131.10 295.26 80
6 11/17/2019 05:53:12 0.24,-128.50 0.77,-126.11 272.93 80
7 11/18/2019 18:12:03 -0.23,-128.48 0.29,-130.66 249.53 80
8 11/19/2019 17:54:04 -0.23,-128.47 -0.84,-125.67 318.76 80
9 11/21/2019 06:13:03 0.22,-128.47 -0.16,-130.27 204.76 80
10 11/22/2019 05:49:42 0.22,-128.46 0.91,-125.27 362.89 80
11 11/23/2019 18:08:35 -0.22,-128.42 0.09,-129.83 160.53 80
12 11/24/2019 17:50:35 -0.22,-128.41 -1.04,-124.84 407.27 80




NCC Satellite Simultaneous Nadir Overpasses (SNOs) Prediction Service
